This is the latest recevied weather packets stored in our database for station/object K6POO-1. If no packets are shown the sender has not sent any weather packets the latest 10 day(s).
| Time | Temp. | Humidity | Pressure | Rain* | Wind** | Luminosity | Snow |
|---|---|---|---|---|---|---|---|
| 1778012116 | 16.67° C | 67% | 1016.4 hPa | 0 mm | - | 515 W/m² | - |
| 1778011813 | 16.67° C | 66% | 1016.4 hPa | 0 mm | - | 602 W/m² | - |
| 1778011511 | 16.67° C | 67% | 1016.4 hPa | 0 mm | - | 909 W/m² | - |
| 1778011208 | 16.11° C | 68% | 1016.4 hPa | 0 mm | - | 867 W/m² | - |
| 1778010903 | 16.11° C | 69% | 1016.2 hPa | 0 mm | - | 845 W/m² | - |
| 1778010601 | 16.67° C | 68% | 1016.3 hPa | 0 mm | - | 819 W/m² | - |
| 1778010298 | 16.67° C | 68% | 1016.5 hPa | 0 mm | - | 810 W/m² | - |
| 1778009998 | 16.67° C | 67% | 1016.7 hPa | 0 mm | - | 858 W/m² | - |
| 1778009696 | 16.11° C | 68% | 1016.6 hPa | 0 mm | - | 886 W/m² | - |
| 1778009393 | 16.11° C | 68% | 1016.5 hPa | 0 mm | - | 959 W/m² | - |
| 1778009092 | 15.56° C | 72% | 1016.6 hPa | 0 mm | - | 997 W/m² | - |
| 1778008788 | 16.11° C | 69% | 1016.5 hPa | 0 mm | - | 1077 W/m² | - |
| 1778008487 | 16.11° C | 70% | 1016.6 hPa | 0 mm | - | 1127 W/m² | - |
| 1778008184 | 16.11° C | 71% | 1016.5 hPa | 0 mm | - | 1062 W/m² | - |
| 1778007879 | 15.56° C | 72% | 1016.4 hPa | 0 mm | - | 782 W/m² | - |
| 1778007575 | 15.56° C | 72% | 1016.3 hPa | 0 mm | - | 690 W/m² | - |
| 1778007272 | 15.56° C | 72% | 1016.4 hPa | 0 mm | - | 611 W/m² | - |
| 1778006968 | 15.56° C | 74% | 1016.4 hPa | 0 mm | - | 511 W/m² | - |
| 1778006665 | 15.56° C | 73% | 1016.4 hPa | 0 mm | - | 506 W/m² | - |
| 1778006362 | 15.56° C | 75% | 1016.4 hPa | 0 mm | - | 618 W/m² | - |
| 1778006059 | 16.11° C | 74% | 1016.5 hPa | 0 mm | - | 656 W/m² | - |
| 1778005756 | 15.56° C | 75% | 1016.5 hPa | 0 mm | - | 549 W/m² | - |
| 1778005452 | 15.56° C | 76% | 1016.6 hPa | 0 mm | - | 566 W/m² | - |
| 1778005149 | 15.56° C | 76% | 1016.4 hPa | 0 mm | - | 363 W/m² | - |
| 1778004846 | 15.56° C | 77% | 1016.3 hPa | 0 mm | - | 430 W/m² | - |
* Rain latest hour (hover to see other rain measurements)
** Current wind speed in m/s (hover to see current wind gust speed)